Bend, OR

2:16 PM PST on December 07, 2016 (GMT -0800)
Bend Municipal

Weather History for KBDN - March, 2014

Change the Weather History Date:

Wednesday, March 26, 2014

  Actual Average (KRDM) Record (KRDM)
Temperature  
Mean Temperature 39 °F 42 °F  
Max Temperature 48 °F 56 °F 77 °F (2015)
Min Temperature 30 °F 27 °F 14 °F (1975)
Degree Days  
Heating Degree Days 26 23  
Month to date heating degree days 662  
Since 1 July heating degree days 5335  
Cooling Degree Days 0 0  
Month to date cooling degree days 0  
Year to date cooling degree days 0  
Moisture  
Dew Point 30 °F    
Average Humidity 73    
Maximum Humidity 93    
Minimum Humidity 50    
Precipitation  
Precipitation 0.01 in 0.03 in 0.21 in (1984)
Month to date precipitation 0.55  
Year to date precipitation 2.17  
Sea Level Pressure  
Sea Level Pressure 29.59 in    
Wind  
Wind Speed 7 mph (SSW)    
Max Wind Speed 20 mph    
Max Gust Speed 26 mph    
Visibility 10 miles    
Events Rain    
T = Trace of Precipitation, MM = Missing Value Source: NWS Daily Summary

Daily Weather History Graph

Daily Weather History Graph

Search for Another Location

Airport or City:

Trip Planner

Search our weather history database for the weather conditions in past years. The results will help you decide how hot, cold, wet, or windy it might be!

Date:

Astronomy

Mar. 26, 2014 Rise Set
Actual Time 6:56 AM PDT 7:24 PM PDT
Civil Twilight 6:27 AM PDT 7:53 PM PDT
Nautical Twilight 5:53 AM PDT 8:28 PM PDT
Astronomical Twilight 5:18 AM PDT 9:03 PM PDT
Moon 4:18 AM PDT (3/26) 3:01 PM PDT (3/26)
Length of Visible Light 13h 25m
Length of Day
12h 27m
Waning Crescent, 21% of the Moon is Illuminated
Mar 26
Waning Crescent
Mar 30
New
Apr 7
First Quarter
Apr 15
Full
Apr 22
Last Quarter

Hourly Weather History & Observations

Time (PDT) Temp. Windchill Dew Point Humidity Pressure Visibility Wind Dir Wind Speed Gust Speed Precip Events Conditions
12:15 AM 32.0 °F - 30.2 °F 93% 29.68 in 10.0 mi Calm Calm - N/A   Scattered Clouds
12:35 AM 32.0 °F - 30.2 °F 93% 29.67 in 10.0 mi Calm Calm - N/A   Partly Cloudy
12:55 AM 32.0 °F 26.4 °F 30.2 °F 93% 29.66 in 10.0 mi SSE 5.8 mph - N/A   Scattered Clouds
1:15 AM 35.6 °F 29.9 °F 32.0 °F 87% 29.66 in 10.0 mi South 6.9 mph - N/A   Partly Cloudy
1:35 AM 35.6 °F 30.7 °F 32.0 °F 87% 29.65 in 10.0 mi SSE 5.8 mph - N/A   Mostly Cloudy
1:55 AM 35.6 °F 30.7 °F 32.0 °F 87% 29.66 in 10.0 mi South 5.8 mph - N/A   Mostly Cloudy
2:15 AM 35.6 °F 31.7 °F 32.0 °F 87% 29.65 in 10.0 mi SSW 4.6 mph - N/A   Scattered Clouds
2:35 AM 33.8 °F 30.8 °F 30.2 °F 87% 29.65 in 10.0 mi NNE 3.5 mph - N/A   Partly Cloudy
2:55 AM 32.0 °F - 30.2 °F 93% 29.64 in 10.0 mi Calm Calm - N/A   Partly Cloudy
3:15 AM 32.0 °F 28.7 °F 28.4 °F 87% 29.64 in 10.0 mi South 3.5 mph - N/A   Clear
3:35 AM 32.0 °F 27.5 °F 28.4 °F 87% 29.63 in 10.0 mi SSE 4.6 mph - N/A   Clear
3:55 AM 32.0 °F 25.6 °F 28.4 °F 87% 29.63 in 10.0 mi South 6.9 mph - N/A   Clear
4:15 AM 35.6 °F 30.7 °F 28.4 °F 75% 29.62 in 10.0 mi South 5.8 mph - N/A   Scattered Clouds
4:35 AM 32.0 °F 26.4 °F 28.4 °F 87% 29.62 in 10.0 mi South 5.8 mph - N/A   Scattered Clouds
4:55 AM 32.0 °F 27.5 °F 26.6 °F 80% 29.61 in 10.0 mi South 4.6 mph - N/A   Scattered Clouds
5:15 AM 30.2 °F 24.3 °F 26.6 °F 86% 29.61 in 10.0 mi South 5.8 mph - N/A   Partly Cloudy
5:35 AM 32.0 °F 27.5 °F 26.6 °F 80% 29.60 in 10.0 mi South 4.6 mph - N/A   Partly Cloudy
5:55 AM 32.0 °F 25.6 °F 26.6 °F 80% 29.60 in 10.0 mi South 6.9 mph - N/A   Partly Cloudy
6:15 AM 32.0 °F 27.5 °F 26.6 °F 80% 29.60 in 10.0 mi SSW 4.6 mph - N/A   Clear
6:35 AM 32.0 °F 26.4 °F 26.6 °F 80% 29.60 in 10.0 mi SSW 5.8 mph - N/A   Clear
6:55 AM 32.0 °F 26.4 °F 28.4 °F 87% 29.60 in 10.0 mi SSW 5.8 mph - N/A   Scattered Clouds
7:15 AM 32.0 °F 26.4 °F 28.4 °F 87% 29.60 in 10.0 mi South 5.8 mph - N/A   Mostly Cloudy
7:35 AM 32.0 °F 28.7 °F 28.4 °F 87% 29.60 in 10.0 mi South 3.5 mph - N/A   Scattered Clouds
7:55 AM 32.0 °F - 28.4 °F 87% 29.60 in 10.0 mi Calm Calm - N/A   Clear
8:15 AM 33.8 °F - 28.4 °F 81% 29.60 in 10.0 mi Calm Calm - N/A   Clear
8:35 AM 35.6 °F 31.7 °F 32.0 °F 87% 29.59 in 10.0 mi WSW 4.6 mph - N/A   Mostly Cloudy
8:55 AM 37.4 °F 33.8 °F 32.0 °F 81% 29.59 in 10.0 mi SW 4.6 mph - N/A   Scattered Clouds
9:15 AM 39.2 °F 35.0 °F 32.0 °F 75% 29.59 in 10.0 mi SW 5.8 mph - N/A   Clear
9:35 AM 41.0 °F 36.4 °F 32.0 °F 70% 29.59 in 10.0 mi South 6.9 mph - N/A   Clear
9:55 AM 44.6 °F 37.2 °F 30.2 °F 57% 29.59 in 10.0 mi SSW 17.3 mph 21.9 mph N/A   Clear
10:15 AM 44.6 °F 37.8 °F 30.2 °F 57% 29.59 in 10.0 mi SW 15.0 mph - N/A   Clear
10:35 AM 44.6 °F 37.4 °F 30.2 °F 57% 29.59 in 10.0 mi SSW 16.1 mph - N/A   Clear
10:55 AM 44.6 °F 38.4 °F 30.2 °F 57% 29.59 in 10.0 mi SW 12.7 mph 18.4 mph N/A   Clear
11:15 AM 46.4 °F 41.1 °F 32.0 °F 57% 29.59 in 10.0 mi SW 11.5 mph - N/A   Partly Cloudy
11:35 AM 46.4 °F 40.7 °F 32.0 °F 57% 29.58 in 10.0 mi South 12.7 mph - N/A   Clear
11:55 AM 46.4 °F 41.5 °F 32.0 °F 57% 29.58 in 10.0 mi SSW 10.4 mph - N/A   Partly Cloudy
12:15 PM 46.4 °F 40.7 °F 28.4 °F 50% 29.57 in 10.0 mi WSW 12.7 mph 18.4 mph N/A   Partly Cloudy
12:35 PM 42.8 °F 35.8 °F 33.8 °F 70% 29.58 in 10.0 mi West 13.8 mph - N/A Rain Light Rain
12:55 PM 42.8 °F 37.5 °F 35.6 °F 76% 29.58 in 10.0 mi West 9.2 mph - N/A Rain Light Rain
1:15 PM 44.6 °F 39.7 °F 33.8 °F 66% 29.57 in 10.0 mi West 9.2 mph - N/A   Clear
1:35 PM 44.6 °F 38.8 °F 35.6 °F 71% 29.57 in 10.0 mi West 11.5 mph - N/A Rain Light Rain
1:55 PM 44.6 °F 37.8 °F 35.6 °F 71% 29.57 in 5.0 mi WSW 15.0 mph 26.5 mph N/A Rain Light Rain
2:15 PM 44.6 °F 38.1 °F 37.4 °F 76% 29.54 in 10.0 mi SSW 13.8 mph - N/A   Scattered Clouds
2:35 PM 48.2 °F - 35.6 °F 62% 29.54 in 10.0 mi SW 12.7 mph - N/A   Clear
2:55 PM 48.2 °F - 32.0 °F 54% 29.53 in 10.0 mi WSW 15.0 mph 20.7 mph N/A   Partly Cloudy
3:15 PM 48.2 °F - 30.2 °F 50% 29.53 in 10.0 mi WSW 12.7 mph 24.2 mph N/A   Clear
3:35 PM 48.2 °F - 32.0 °F 54% 29.54 in 10.0 mi SW 16.1 mph - N/A   Mostly Cloudy
3:55 PM 46.4 °F 41.9 °F 32.0 °F 57% 29.54 in 10.0 mi WSW 9.2 mph - N/A   Scattered Clouds
4:15 PM 46.4 °F 40.7 °F 32.0 °F 57% 29.54 in 10.0 mi South 12.7 mph - N/A   Clear
4:35 PM 46.4 °F 41.1 °F 32.0 °F 57% 29.54 in 10.0 mi SSW 11.5 mph - N/A   Scattered Clouds
4:55 PM 46.4 °F 41.9 °F 28.4 °F 50% 29.54 in 10.0 mi WSW 9.2 mph 20.7 mph N/A   Scattered Clouds
5:15 PM 46.4 °F 39.8 °F 28.4 °F 50% 29.54 in 10.0 mi SW 16.1 mph - N/A   Scattered Clouds
5:35 PM 46.4 °F 39.0 °F 28.4 °F 50% 29.55 in 10.0 mi SW 19.6 mph 25.3 mph N/A   Mostly Cloudy
5:55 PM 41.0 °F 36.4 °F 33.8 °F 76% 29.56 in 10.0 mi WSW 6.9 mph - 0.01 in Rain Light Rain
6:15 PM 42.8 °F 39.3 °F 32.0 °F 66% 29.55 in 10.0 mi WSW 5.8 mph - N/A   Partly Cloudy
6:35 PM 44.6 °F 38.4 °F 32.0 °F 61% 29.55 in 10.0 mi SW 12.7 mph - N/A   Clear
6:55 PM 42.8 °F 36.6 °F 32.0 °F 66% 29.56 in 10.0 mi SSW 11.5 mph - N/A   Scattered Clouds
7:15 PM 41.0 °F 33.5 °F 30.2 °F 65% 29.56 in 10.0 mi SW 13.8 mph - N/A   Mostly Cloudy
7:35 PM 39.2 °F 31.2 °F 32.0 °F 75% 29.57 in 10.0 mi SW 13.8 mph 23.0 mph N/A Rain Light Rain
7:55 PM 39.2 °F 32.0 °F 30.2 °F 70% 29.56 in 10.0 mi WNW 11.5 mph - N/A   Partly Cloudy
8:15 PM 39.2 °F 33.6 °F 28.4 °F 65% 29.58 in 10.0 mi WSW 8.1 mph - N/A   Clear
8:35 PM 37.4 °F 32.8 °F 28.4 °F 70% 29.60 in 10.0 mi WSW 5.8 mph - N/A   Clear
8:55 PM 37.4 °F 28.5 °F 28.4 °F 70% 29.60 in 10.0 mi SW 15.0 mph 19.6 mph N/A   Clear
9:15 PM 37.4 °F 28.9 °F 30.2 °F 75% 29.60 in 10.0 mi SSW 13.8 mph 20.7 mph N/A   Partly Cloudy
9:35 PM 35.6 °F 27.5 °F 32.0 °F 87% 29.60 in 10.0 mi SSW 11.5 mph - N/A   Clear
9:55 PM 35.6 °F 27.1 °F 30.2 °F 81% 29.60 in 10.0 mi SSW 12.7 mph - N/A   Clear
10:15 PM 37.4 °F 29.3 °F 28.4 °F 70% 29.61 in 10.0 mi SSW 12.7 mph - N/A   Partly Cloudy
10:35 PM 35.6 °F 28.0 °F 28.4 °F 75% 29.61 in 10.0 mi SSW 10.4 mph - N/A   Clear
10:55 PM 35.6 °F 28.6 °F 28.4 °F 75% 29.61 in 10.0 mi SW 9.2 mph - N/A   Clear
11:15 PM 35.6 °F 28.6 °F 32.0 °F 87% 29.62 in 10.0 mi SSW 9.2 mph - N/A   Partly Cloudy
11:35 PM 33.8 °F 26.4 °F 30.2 °F 87% 29.62 in 10.0 mi South 9.2 mph - N/A   Clear
11:55 PM 35.6 °F 29.9 °F 28.4 °F 75% 29.63 in 10.0 mi SSW 6.9 mph - N/A   Partly Cloudy